sat.trackr.live / text

‹ back to catalog

QIANFAN-179

NORAD 69396 · 2026-124Q

PAYLOAD ACTIVE UNKNOWN

§ Identity

Operator
Country
PRC
Launch date
2026-06-04
Launch site
TAISC
Launch vehicle
Mass (kg)
RCS (m²)

External: N2YO · Heavens-Above · Gunter

§ Orbital elements

Epoch: 2026-09-20T03:34:11.663040Z

Period
106.59 min
Inclination
89.0044°
Eccentricity
0.0001827
Mean motion
13.51029992 rev/d
Perigee alt
1,067.1 km
Apogee alt
1,069.8 km
Semi-major
7,446.6 km
B*
1.2297e-4
RAAN
351.9703°
Arg perigee
101.5321°
Mean anomaly
258.6036°
Rev number
1,490

§ Raw data

QIANFAN-1791 69396U 26124Q   26263.14874610  .00000091  00000+0  12297-3 0  99912 69396  89.0044 351.9703 0001827 101.5321 258.6036 13.51029992 14904

JSON: /api/v1/satellites/69396 · /tle

For live sub-satellite position, see the globe view (requires WebGL).

§ Visibility from observer

Set your observer location to see the next 7 days of passes ≥ 10°. The values pass through the URL so the page stays shareable.

No JS? Fill the form by hand. The geolocation button needs JavaScript.